Location: Unspecified
(51.5147°N, 7.4673°E)
Time: 04:47:12
(UTC+01:00)

A-11 Canister half - Pass Details

Date: 16 February 2026
Orbit: 1512 x 1687 km, 47.2° (Epoch: 7 March)

Event Time Altitude Azimuth Distance (km) Brightness Sun altitude
Rises 22:12:25 0° 229° (SW) 4,932 11.8 -40.1°
Reaches altitude 10° 22:15:43 10° 224° (SW) 3,939 11.1 -40.5°
Enters shadow 22:18:05 19° 219° (SW) 3,260 10.6 -40.8°
Maximum altitude 22:25:18 51° 153° (SSE) 2,018 - -41.6°
Drops below altitude 10° 22:34:39 10° 82° (E) 3,848 - -42.7°
Sets 22:37:49 0° 78° (ENE) 4,811 - -43.0°
